Location: Gerlach
(40.6516°N, 119.3568°W)
Time: 02:07:38
(UTC-08:00)

Vanguard 1 Rocket - Visible Passes

Search period start: 28 January 2023 00:00
Search period end: 07 February 2023 00:00
Orbit: 650 x 4225 km, 34.3° (Epoch: 27 January)

Date Brightness Start Highest point End Pass type
(mag) Time Alt. Az. Time Alt. Az. Time Alt. Az.
28 Jan 11.1 18:57:58 10° W 19:20:36 51° SSW 19:43:03 10° SE visible
28 Jan 11.5 21:32:54 10° W 21:49:15 22° SW 22:03:33 10° S visible
29 Jan 11.0 17:44:22 10° W 18:05:45 61° SSW 18:30:32 10° SE visible
29 Jan 11.5 20:15:35 10° W 20:36:08 33° SW 20:55:01 10° S visible
30 Jan 11.3 19:00:35 10° W 19:22:10 45° SW 19:44:20 10° SSE visible
30 Jan 11.7 21:37:48 10° W 21:50:29 16° SW 22:02:12 10° SSW visible
31 Jan 11.2 17:46:57 10° W 18:07:34 56° SSW 18:32:05 10° SE visible
31 Jan 11.6 20:18:52 10° W 20:37:28 27° SW 20:55:17 10° S visible
01 Feb 11.5 19:03:24 10° W 19:23:43 39° SW 19:45:14 10° SSE visible
01 Feb 11.9 21:46:02 10° WSW 21:51:48 11° WSW 21:57:23 10° SW visible
02 Feb 11.3 17:49:37 10° W 18:09:21 50° SSW 18:33:23 10° SE visible
02 Feb 11.8 20:22:48 10° W 20:38:51 22° SW 20:54:45 10° S visible
03 Feb 11.7 19:06:29 10° W 19:25:15 33° SW 19:45:40 10° SSE visible
04 Feb 11.5 17:52:25 10° W 18:11:07 43° SSW 18:34:21 10° SSE visible
04 Feb 11.9 20:27:57 10° W 20:40:18 16° SW 20:52:50 10° SSW visible
05 Feb 11.9 19:10:00 10° W 19:26:50 26° SW 19:45:30 10° S visible
06 Feb 11.7 17:55:25 10° W 18:12:54 37° SW 18:34:53 10° SSE visible
06 Feb 12.2 20:37:05 10° WSW 20:41:53 11° SW 20:46:46 10° SW visible
